Regional Weather Roundup
Issued by NWS

Home | Current Version | Previous Version | Text Only | Print | Product List | Glossary Off
Versions: 1 2 3 4 5 6 7 8 9 10 11 12 13 14 15 16 17 18 19 20 21 22 23 24 25 26 27 28 29 30 31 32 33 34 35 36 37 38 39 40 41 42 43 44 45 46 47 48 49 50

000
ASUS43 KLOT 272004
RWRIL

ILLINOIS REGIONAL WEATHER ROUNDUP
NATIONAL WEATHER SERVICE CHICAGO/ROMEOVILLE IL
300 PM CDT SUN MAY 27 2018

NOTE: "FAIR" INDICATES FEW OR NO CLOUDS BELOW 12,000 FEET WITH NO
SIGNIFICANT WEATHER AND/OR OBSTRUCTIONS TO VISIBILITY.

* THESE STATIONS ARE NOT UNDER NWS QUALITY CONTROL. THEY ALSO MAY NOT
  REPORT WEATHER SUCH AS PRECIPITATION OR FOG.

ILZ001-002-007-009-015-016-024-272100-
NORTHWEST ILLINOIS

CITY           SKY/WX    TMP DP  RH WIND       PRES   REMARKS
MOLINE         FAIR      93  63  36 S6        29.82F HX  94
STERLING*        N/A    N/A N/A N/A MISG        N/A
SAVANNA*       FAIR      95  67  38 SW6       29.84F HX  98
$$

ILZ003-004-008-010-011-017-018-272100-
NORTH CENTRAL ILLINOIS

CITY           SKY/WX    TMP DP  RH WIND       PRES   REMARKS
ROCKFORD       FAIR      92  59  33 VRB5      29.86F HX  91
FREEPORT*      FAIR      92  62  35 S7        29.87F HX  93
ROCHELLE*      FAIR      94  56  27 CALM      29.86F HX  92
DE KALB*       FAIR      94  60  32 CALM      29.88F HX  93
PERU*          FAIR      97  59  28 CALM      29.86F HX  96
$$

ILZ005-006-012>014-019>023-272100-
NORTHEAST ILLINOIS

CITY           SKY/WX    TMP DP  RH WIND       PRES   REMARKS
CHICAGO-OHARE  FAIR      95  59  30 N3        29.85F HX  94
CHICAGO-MIDWAY FAIR      96  55  25 NE6       29.86F HX  94
AURORA         FAIR      95  58  28 CALM      29.86F HX  94
LANSING*       FAIR      94  64  37 W3        29.87F HX  95
JOLIET*        FAIR      95  62  32 CALM      29.86F HX  95
WAUKEGAN       FAIR      87  68  52 SE10      29.87S HX  90
DUPAGE AIRPORT FAIR      93  58  30 VRB3      29.86F HX  92
KANKAKEE*      FAIR      92  63  37 CALM      29.86F HX  93
WHEELING       FAIR      93  62  35 SE7       29.87F HX  93
MORRIS*        PTSUNNY   97  58  27 N5        29.84F HX  95
ROMEOVILLE*    FAIR      94  57  28 W6        29.87S HX  93
$$

LMZ740>746-272100-
SOUTHERN LAKE MICHIGAN

STATION/POSITION SKY/WX   TEMP    WIND        PRES    VSBY  WAVE
                          AIR SEA DIR/SP/G                  HT/PER
                          (F)     (DEG/KT/KT) (MB)    (MI)  (FT/S)
SOUTHERN BUOY              58 46  150/  8/  8 1012.1F         0
WILMETTE HARBOR            68 61  100/  6/  8   N/A           0
HARRISON CRIB              82      90/ 12/ 12   N/A
BURNHAM HARBOR                     70/  2/  5   N/A
CALUMET HARBOR             75      50/ 10/ 12 1011.3F
BURNS HARBOR               75      80/ 10/ 10 1012.2F
MICHIGAN CITY              76      30/  9/ 10   N/A
MICHIGAN CITY 6N           74 71   70/  6/  6   N/A           1
ST. JOSEPH                 77 66   20/  4/  4 1011.8F         0
$$

ILZ025>027-034>036-040-047-049-050-058-095>099-272100-
WEST-CENTRAL ILLINOIS

CITY           SKY/WX    TMP DP  RH WIND       PRES   REMARKS
QUINCY         SUNNY     94  65  38 N3        29.85F HX  96
GALESBURG*     FAIR      96  58  28 SE3       29.86F HX  95
MACOMB*        SUNNY     95  64  35 S8        29.87F HX  96
JACKSONVILLE*  SUNNY     92  68  46 NW3       29.86F HX  96
PITTSFIELD*    SUNNY     92  73  52 SW5       29.88S HX 101
$$

ILZ028>032-037-038-041>044-048-051>054-059>061-272100-
CENTRAL ILLINOIS

CITY           SKY/WX    TMP DP  RH WIND       PRES   REMARKS
PONTIAC        FAIR      96  54  24 N3        29.86F HX  94
BLOOMINGTON    FAIR      96  62  32 VRB6      29.87F HX  97
DECATUR        FAIR      91  65  41 CALM      29.87F HX  93
PEORIA         FAIR      94  66  39 CALM      29.85F HX  97
LACON*         FAIR      95  53  24 N3        29.85F HX  92
LINCOLN*       FAIR      93  71  48 CALM      29.86F HX  99
SPRINGFIELD    PTSUNNY   91  71  51 E14G20    29.88R THUNDER HX  97
TAYLORVILLE    TSTM      73  64  73 S12       29.91S
$$

ILZ033-039-045-046-055>057-062-063-272100-
EAST-CENTRAL ILLINOIS

CITY           SKY/WX    TMP DP  RH WIND       PRES   REMARKS
CHAMPAIGN      FAIR      94  65  38 NW6       29.86F HX  96
DANVILLE*      FAIR      94  62  35 CALM      29.85F HX  95
RANTOUL*       FAIR      96  64  34 W5        29.87F HX  97
MATTOON        FAIR      90  70  51 CALM      29.86F HX  95
PARIS*         RAIN      80  69  69 NE8G18    29.89R HX  83
$$

ILZ079-100>102-272100-
SOUTHWEST ILLINOIS

CITY           SKY/WX    TMP DP  RH WIND       PRES   REMARKS
ALTON          MOSUNNY   93  73  52 NW7       29.88F HX 102
BELLEVILLE     SUNNY     92  70  48 W5        29.85F HX  98
CAHOKIA*       PTSUNNY   91  70  49 VRB3      29.86F THUNDER HX  96
SPARTA*        SUNNY     92  73  53 NW3       29.88F HX 101
$$

ILZ064>066-069>071-074>076-080>082-084>086-088>090-092>094-272100-
SOUTH-CENTRAL ILLINOIS

CITY           SKY/WX    TMP DP  RH WIND       PRES   REMARKS
CARBONDALE     FAIR      90  71  53 SW7       29.88F HX  96
CAIRO*         FAIR      89  69  50 CALM      29.87F HX  93
EFFINGHAM*     PTSUNNY   92  69  46 SE8       29.88F HX  97
MARION         PTSUNNY   88  68  51 S9        29.89F HX  91
MT. VERNON     FAIR      82  68  62 SW6       29.89S HX  85
CENTRALIA*     MOSUNNY   94  71  46 S7        29.87S HX 101
SALEM*         FAIR      94  68  41 NW5       29.87F HX  98
METROPOLIS*    FAIR      91  69  47 SE3       29.88F HX  96
$$

ILZ067-068-072-073-078-083-087-091-272100-
SOUTHEAST ILLINOIS

CITY           SKY/WX    TMP DP  RH WIND       PRES   REMARKS
LAWRENCEVILLE  FAIR      88  65  46 W9        29.88F THUNDER HX  90
FLORA*         FAIR      90  70  52 S10       29.88F HX  95
FAIRFIELD*     FAIR      82  68  62 CALM      29.87F HX  85
HARRISBURG*    RAIN      81  73  76 NE6       29.89S HX  86
ROBINSON*      FAIR      88  67  49 SW9       29.88F HX  90
CARMI*         FAIR      89  68  50 W12       29.87F HX  93
$$

ABBREVIATIONS USED IN REMARKS
   TC - TEMPERATURE IN CELSIUS
  WCI - WIND CHILL INDEX
   HX - HEAT INDEX
  VSB - VISIBILITY
$$





USA.gov is the U.S. government's official web portal to all federal, state and local government web resources and services.